Regional Weather Roundup
Issued by NWS Goodland, KS

Home | Current Version | Previous Version | Text Only | Print | Product List | Glossary Off
Versions: 1 2 3 4 5 6 7 8 9 10 11 12 13 14 15 16 17 18 19 20 21 22 23 24 25 26 27 28 29 30 31 32 33 34 35 36 37 38 39 40 41 42 43 44 45 46 47 48 49 50

093
ASUS43 KGLD 191459
RWRGLD

GOODLAND FORECAST AREA HOURLY WEATHER ROUNDUP
NATIONAL WEATHER SERVICE GOODLAND KS
800 AM MST THU JAN 19 2017

...OFFICIAL OBSERVATIONS...

CITY           SKY/WX    TMP DP  RH WIND       PRES   REMARKS
GOODLAND KS    FOG       27  27 100 SE8       29.59S VSB<1/4
HILL CITY KS   CLOUDY    42  42 100 SE3       29.66S FOG
IMPERIAL NEB   CLOUDY    23  19  85 W3        29.62R
MCCOOK NEB     FOG       35  35 100 SE6       29.63F VSB<1/4
AKRON CO       CLOUDY    28  19  69 W13       29.59S WCI  17
BURLINGTON CO  CLOUDY    26  21  81 W7        29.60R
LIMON CO       CLOUDY    25  17  72 NW5       29.63R
$$

...UNOFFICIAL OBSERVATIONS...

CITY           SKY/WX    TMP DP  RH WIND       PRES   REMARKS
LENORA KS        N/A     41  32  70 CALM        N/A
TRENTON NEB      N/A     28  32 100 CALM        N/A
KIT CARSON CO    N/A     29  22  75 MISG        N/A
YUMA CO        FAIR      19  14  79 W10       29.60R WCI   8
$$




USA.gov is the U.S. government's official web portal to all federal, state and local government web resources and services.